Location: Pianadetto
(44.4000°N, 10.1000°E)
Time: 02:53:13
(UTC+00:00)

Cosmos 1674 Rocket - Pass Details

Date: 26 May 2022
Orbit: 602 x 629 km, 82.5° (Epoch: 26 June)

Event Time Altitude Azimuth Distance (km) Brightness Sun altitude
Exits shadow 00:06:57 57° 277° (W) 719 3.7 -23.5°
Maximum altitude 00:07:01 57° 281° (W) 719 3.8 -23.5°
Drops below altitude 10° 00:11:18 10° 1° (N) 1,962 7.2 -23.3°
Sets 00:13:33 0° 5° (N) 2,868 8.4 -23.2°
